Location: Chiroubles
(46.1812°N, 4.6660°E)
Time: 00:52:27
(UTC+00:00)

Courier 1B - Pass Details

Date: 07 August 2021
Orbit: 963 x 1209 km, 28.3° (Epoch: 24 September)

Event Time Altitude Azimuth Distance (km) Brightness Sun altitude
Rises 20:51:46 0° 249° (WSW) 4,108 11.1 -16.2°
Reaches altitude 10° 20:57:39 10° 216° (SW) 3,128 10.0 -16.9°
Maximum altitude 20:59:19 11° 203° (SSW) 3,061 9.8 -17.1°
Drops below altitude 10° 21:00:58 10° 191° (S) 3,108 9.8 -17.3°
Enters shadow 21:01:35 - 186° (S) 3,155 9.8 -17.3°
